#timestamp,LO_Frequency,Hit 
1497866415.8,286046980.2,N
1497866435.6,286046977.5,N
1497866455.4,286046978.5,N
1497866475.3,286046976.1,N
1497866495.1,286046975.8,N
1497866515.8,286046976.7,N
1497866535.7,286046977.2,N
1497866555.5,286046974.3,N
1497866575.3,286046974.9,N
1497866595.2,286046975.6,N
1497866615.9,286046972.7,N
1497866635.7,286046974.0,N
1497866655.5,286046971.2,N
1497866675.4,286046972.2,N
1497866695.2,286046969.4,N
1497866715.0,286046969.7,N
1497866715.9,286046969.7,N
1497866735.8,286046969.6,N
1497866755.6,286046968.6,N
1497866775.4,286046968.9,N
1497866795.3,286046969.0,N
1497866815.1,286046966.8,N
1497866816.0,286046966.8,N
1497866835.8,286046967.4,N
1497866855.7,286046967.1,N
1497866875.5,286046965.0,N
1497866895.3,286046964.7,N
1497866915.2,286046963.1,N
1497866935.9,286046961.7,N
1497866955.7,286046964.0,N
1497866975.5,286046961.7,N
1497866995.4,286046962.7,N
1497867015.2,286046962.8,N
1497867035.0,286046962.3,N
1497867035.9,286046962.3,N
1497867055.8,286046960.2,N
1497867075.6,286046961.0,N
1497867095.4,286046958.4,N
1497867115.3,286046959.2,N
1497867135.1,286046959.5,N
1497867136.0,286046959.5,N
1497867155.8,286046957.0,N
1497867175.7,286046955.3,N
1497867195.5,286046956.0,N
1497867215.3,286046956.3,N
1497867235.2,286046954.6,N
1497867255.9,286046954.1,N
1497867275.7,286046954.7,N
1497867295.5,286046952.3,N
1497867315.4,286046952.8,N
1497867335.2,286046952.6,N
1497867355.0,286046953.2,N
1497867355.9,286046953.2,N
1497867375.8,286046950.9,N
1497867395.6,286046951.3,N
1497867415.4,286046950.9,N
1497867435.3,286046948.5,N
1497867455.1,286046949.2,N
1497867456.0,286046949.2,N
1497867475.8,286046949.9,N
1497867495.7,286046947.7,N
1497867515.5,286046947.7,N
1497867535.3,286046948.4,N
1497867555.2,286046945.3,N
1497867575.9,286046948.4,N
1497867595.7,286046945.5,N
1497867615.5,286046946.6,N
1497867635.4,286046943.8,N
1497867655.2,286046945.0,N
1497867675.0,286046945.2,N
1497867675.9,286046945.2,N
1497867695.8,286046943.2,N
1497867715.6,286046943.2,N
1497867735.4,286046940.5,N
1497867755.3,286046940.6,N
1497867775.1,286046940.7,N
1497867776.0,286046940.7,N
1497867795.8,286046941.8,N
1497867815.7,286046939.8,N
1497867835.5,286046939.2,N
1497867855.3,286046940.2,N
1497867875.1,286046940.3,N
1497867895.9,286046937.7,N
1497867915.7,286046938.3,N
1497867935.5,286046936.4,N
1497867955.4,286046936.2,N
1497867975.2,286046936.3,N
1497867995.0,286046937.0,N
1497867995.9,286046937.0,N
1497868015.8,286046934.7,N
1497868035.8,286046935.5,N
1497868055.6,286046932.9,N
1497868075.5,286046933.5,N
1497868095.3,286046931.3,N
1497868115.1,286046931.1,N
1497868135.9,286046932.1,N
1497868155.7,286046931.5,N
1497868175.5,286046929.5,N
1497868195.3,286046930.2,N
1497868215.2,286046930.3,N
1497868235.0,286046930.3,N
1497868235.9,286046930.3,N
1497868255.7,286046928.0,N
1497868275.6,286046928.5,N
1497868295.4,286046927.8,N
1497868315.2,286046928.5,N
1497868335.1,286046928.8,N
1497868336.0,286046928.8,N
1497868355.8,286046926.6,N
1497868375.6,286046926.7,N
1497868395.5,286046924.9,N
1497868415.3,286046924.7,N
1497868435.1,286046925.3,N
1497868455.9,286046923.1,N
1497868475.7,286046924.4,N
1497868495.5,286046921.7,N
1497868515.3,286046921.5,N
1497868535.2,286046922.1,N
1497868555.0,286046920.6,N
1497868555.9,286046920.6,N
1497868575.7,286046920.9,N
1497868595.6,286046919.8,N
1497868615.4,286046921.0,N
1497868635.2,286046921.1,N
1497868655.1,286046918.5,N
1497868656.0,286046918.5,N
1497868675.8,286046918.9,N
1497868695.6,286046917.1,N
1497868715.5,286046917.5,N
1497868735.3,286046917.9,N
1497868755.1,286046915.7,N
1497868775.8,286046916.3,N
1497868795.7,286046916.1,N
1497868815.5,286046913.8,N
1497868835.3,286046913.6,N
1497868855.2,286046911.8,N
1497868875.9,286046912.5,N
1497868895.7,286046914.8,N
1497868915.6,286046912.1,N
1497868935.4,286046912.9,N
1497868955.2,286046910.2,N
1497868975.0,286046912.6,N
1497868976.0,286046912.6,N
1497868995.8,286046910.8,N
1497869015.6,286046910.8,N
1497869035.4,286046908.6,N
1497869055.3,286046909.6,N
1497869075.1,286046909.7,N
1497869095.8,286046909.1,N
1497869115.7,286046907.1,N
1497869135.5,286046908.3,N
1497869155.3,286046908.2,N
1497869175.2,286046905.7,N
1497869195.9,286046905.7,N
1497869215.7,286046906.4,N
1497869235.5,286046904.0,N
1497869255.4,286046904.0,N
1497869275.2,286046904.7,N
1497869295.0,286046904.9,N
1497869295.9,286046904.9,N
1497869315.8,286046902.6,N
1497869335.6,286046903.0,N
1497869355.4,286046903.0,N
1497869375.3,286046900.6,N
1497869395.1,286046900.6,N
1497869396.0,286046900.6,N
1497869415.8,286046904.9,N
1497869435.7,286046906.7,N
1497869455.5,286046901.7,N
1497869475.3,286046901.3,N
1497869495.1,286046905.4,N
1497869515.9,286046914.7,N
1497869535.7,286046926.8,N
1497869555.5,286046933.7,N
1497869575.4,286046938.6,N
1497869595.2,286046943.1,N
1497869615.0,286046945.8,N
1497869615.9,286046945.8,N
1497869635.8,286046951.1,N
1497869655.6,286046950.6,N
1497869675.4,286046953.0,N
1497869695.3,286046952.0,N
1497869715.1,286046954.2,N
1497869716.0,286046954.2,N
1497869735.8,286046952.8,N
1497869755.6,286046957.3,N
1497869775.5,286046960.8,N
1497869795.3,286046958.9,N
1497869815.1,286046953.3,N
1497869835.9,286046952.2,N
1497869855.7,286046951.4,N
1497869875.5,286046947.3,N
1497869895.4,286046946.3,N
1497869915.2,286046944.1,N
1497869935.0,286046945.2,N
1497869935.9,286046945.2,N
1497869955.8,286046942.4,N
1497869975.6,286046940.6,N
1497869995.4,286046941.7,N
